Le nostre stazioni meteo in Italia

Pubblicità
Il mio iltempo24.it
S. Maria Di Leuca, Italia (16360): Temperatura & dewpoint: 01.12.2019 10:00:00 - 07.12.2019 10:00:00 (CET)S. Maria Di Leuca, Italia (16360): velocità del vento: 01.12.2019 10:00:00 - 07.12.2019 10:00:00 (CET)S. Maria Di Leuca, Italia (16360): direzione del vento: 01.12.2019 10:00:00 - 07.12.2019 10:00:00 (CET)S. Maria Di Leuca, Italia (16360): reduced air pressure: 01.12.2019 10:00:00 - 07.12.2019 10:00:00 (CET)S. Maria Di Leuca, Italia (16360): visibility: 01.12.2019 10:00:00 - 07.12.2019 10:00:00 (CET)S. Maria Di Leuca, Italia (16360): ore di luce: 01.12.2019 10:00:00 - 07.12.2019 10:00:00 (CET)
Data & Tempo tt [°C] td [°C] ff [km/h] ff [kn] dd ppp [hPa] vv [km] sd [min]
07.12.2019 10:00:00 15,8 13,3 9 5 O 1020,1 12 60
07.12.2019 09:00:00 14,4 11,4 8 4 ONO 1019,8 12 42
07.12.2019 08:00:00 13,8 10,8 8 4 ONO 1019,4 12 0
07.12.2019 07:00:00 13,2 10,2 9 5 O 1019,2 12 -
07.12.2019 06:00:00 - - - - - - - -
07.12.2019 05:00:00 - - - - - - - -
07.12.2019 04:00:00 - - - - - - - -
07.12.2019 03:00:00 - - - - - - - -
07.12.2019 02:00:00 - - - - - - - -
07.12.2019 01:00:00 - - - - - - - -
07.12.2019 00:00:00 - - - - - - - -
06.12.2019 23:00:00 - - - - - - - -
06.12.2019 22:00:00 - - - - - - - -
06.12.2019 21:00:00 - - - - - - - -
06.12.2019 20:00:00 - - - - - - - -
06.12.2019 19:00:00 - - - - - - - -
06.12.2019 18:00:00 15,4 12,9 13 7 SSE 1020,7 6 -
06.12.2019 17:00:00 15,4 12,9 11 6 SSE 1021,0 6 -
06.12.2019 16:00:00 15,4 13,8 15 8 SSE 1021,4 6 0
06.12.2019 15:00:00 16,0 14,0 9 5 ESE 1021,7 10 0
06.12.2019 14:00:00 17,0 13,9 9 5 SE 1022,2 10 0
06.12.2019 13:00:00 17,4 14,3 9 5 SSE 1023,2 10 0
06.12.2019 12:00:00 17,4 15,0 9 5 SSE 1023,8 10 0
06.12.2019 11:00:00 15,8 13,5 5 3 SE 1024,5 8 0
06.12.2019 10:00:00 15,6 12,7 5 3 SSE 1024,5 10 0
06.12.2019 09:00:00 15,6 12,7 8 4 S 1024,5 10 0
06.12.2019 08:00:00 15,4 12,7 9 5 S 1024,0 10 0
06.12.2019 07:00:00 15,4 12,7 9 5 ESE 1023,7 10 -
06.12.2019 06:00:00 - - - - - - - -
06.12.2019 05:00:00 - - - - - - - -
06.12.2019 04:00:00 - - - - - - - -
06.12.2019 03:00:00 - - - - - - - -
06.12.2019 02:00:00 - - - - - - - -
06.12.2019 01:00:00 - - - - - - - -
06.12.2019 00:00:00 - - - - - - - -
05.12.2019 23:00:00 - - - - - - - -
05.12.2019 22:00:00 - - - - - - - -
05.12.2019 21:00:00 - - - - - - - -
05.12.2019 20:00:00 - - - - - - - -
05.12.2019 19:00:00 - - - - - - - -
05.12.2019 18:00:00 14,0 11,7 16 9 E 1023,1 6 -
05.12.2019 17:00:00 14,0 12,0 18 10 E 1023,1 4,0 -
05.12.2019 16:00:00 14,2 11,7 22 12 E 1022,9 4,0 0
05.12.2019 15:00:00 15,0 12,9 28 15 E 1022,7 10 0
05.12.2019 14:00:00 15,4 13,2 21 11 ESE 1023,1 3,0 0
05.12.2019 13:00:00 15,4 13,8 22 12 E 1023,1 2,0 0
05.12.2019 12:00:00 15,0 14,7 16 9 ESE 1023,3 6 0
05.12.2019 11:00:00 15,6 13,6 15 8 ESE 1023,5 10 0
05.12.2019 10:00:00 15,6 12,5 16 9 SE 1023,2 10 0
05.12.2019 09:00:00 15,4 11,6 18 10 SE 1022,6 10 0
05.12.2019 08:00:00 15,4 11,6 18 10 SE 1021,7 10 0
05.12.2019 07:00:00 15,0 10,8 21 11 ESE 1021,8 10 0
05.12.2019 06:00:00 - - - - - - - -
05.12.2019 05:00:00 - - - - - - - -
05.12.2019 04:00:00 - - - - - - - -
05.12.2019 03:00:00 - - - - - - - -
05.12.2019 02:00:00 - - - - - - - -
05.12.2019 01:00:00 - - - - - - - -
05.12.2019 00:00:00 - - - - - - - -
04.12.2019 23:00:00 - - - - - - - -
04.12.2019 22:00:00 - - - - - - - -
04.12.2019 21:00:00 - - - - - - - -
04.12.2019 20:00:00 - - - - - - - -
04.12.2019 19:00:00 10,0 4,4 24 13 NNE 1019,1 10 -
04.12.2019 18:00:00 10,0 4,4 28 15 NNE 1018,6 10 -
04.12.2019 17:00:00 - - - - - - - -
04.12.2019 16:00:00 10,0 2,8 31 17 NNE 1018,1 20 60
04.12.2019 15:00:00 12,6 4,6 31 17 NNE 1018,5 20 60
04.12.2019 14:00:00 12,6 5,5 26 14 NNE 1018,6 20 60
04.12.2019 13:00:00 12,8 5,7 22 12 N 1018,8 20 60
04.12.2019 12:00:00 13,4 5,8 22 12 NNE 1018,8 20 60
04.12.2019 11:00:00 14,0 7,1 21 11 N 1019,4 15 60
04.12.2019 10:00:00 13,6 7,2 21 11 N 1019,6 10 60
04.12.2019 09:00:00 13,0 7,0 16 9 N 1019,5 15 60
04.12.2019 08:00:00 12,6 7,9 18 10 N 1019,2 15 42
04.12.2019 07:00:00 14,2 10,2 15 8 NNO 1019,1 10 0
04.12.2019 06:00:00 - - - - - - - -
04.12.2019 05:00:00 - - - - - - - -
04.12.2019 04:00:00 - - - - - - - -
04.12.2019 03:00:00 - - - - - - - -
04.12.2019 02:00:00 - - - - - - - -
04.12.2019 01:00:00 - - - - - - - -
04.12.2019 00:00:00 - - - - - - - -
03.12.2019 23:00:00 - - - - - - - -
03.12.2019 22:00:00 - - - - - - - -
03.12.2019 21:00:00 - - - - - - - -
03.12.2019 20:00:00 - - - - - - - -
03.12.2019 19:00:00 - - - - - - - -
03.12.2019 18:00:00 - - - - - - - -
03.12.2019 17:00:00 15,0 13,0 21 11 NE 1016,1 10 -
03.12.2019 16:00:00 16,2 14,5 15 8 NNE 1016,1 10 0
03.12.2019 15:00:00 16,8 15,5 13 7 NE 1016,0 12 0
03.12.2019 14:00:00 17,0 16,0 15 8 NE 1015,9 12 30
03.12.2019 13:00:00 16,8 15,0 9 5 ONO 1016,4 12 60
03.12.2019 12:00:00 12,8 10,9 9 5 O 1016,8 12 60
03.12.2019 11:00:00 - - - - - - - -
03.12.2019 10:00:00 12,2 9,8 11 6 OSO 1017,3 12 0
03.12.2019 09:00:00 12,0 9,2 8 4 O 1017,0 12 18
03.12.2019 08:00:00 11,8 9,0 9 5 OSO 1016,8 10 12
03.12.2019 07:00:00 11,6 8,8 11 6 SO 1016,8 12 0
03.12.2019 06:00:00 - - - - - - - -
03.12.2019 05:00:00 - - - - - - - -
03.12.2019 04:00:00 - - - - - - - -
03.12.2019 03:00:00 - - - - - - - -
03.12.2019 02:00:00 - - - - - - - -
03.12.2019 01:00:00 - - - - - - - -
03.12.2019 00:00:00 - - - - - - - -
02.12.2019 23:00:00 - - - - - - - -
02.12.2019 22:00:00 - - - - - - - -
02.12.2019 21:00:00 - - - - - - - -
02.12.2019 20:00:00 - - - - - - - -
02.12.2019 19:00:00 16,6 15,0 18 10 S 1018,4 12 -
02.12.2019 18:00:00 16,4 14,8 18 10 S 1018,1 12 -
02.12.2019 17:00:00 16,6 14,6 18 10 S 1018,1 12 0
02.12.2019 16:00:00 16,6 14,1 22 12 S 1018,2 15 0
02.12.2019 15:00:00 16,8 13,7 24 13 S 1018,5 15 0
02.12.2019 14:00:00 16,8 12,5 22 12 S 1019,0 15 0
02.12.2019 13:00:00 16,8 12,5 24 13 S 1019,5 15 0
02.12.2019 12:00:00 16,6 11,7 22 12 S 1020,2 15 0
02.12.2019 11:00:00 16,4 11,5 21 11 S 1020,5 15 0
02.12.2019 10:00:00 16,4 11,8 18 10 S 1020,9 15 6
02.12.2019 09:00:00 16,0 11,6 18 10 S 1020,7 15 0
02.12.2019 08:00:00 15,6 12,0 16 9 S 1020,7 15 0
02.12.2019 07:00:00 15,4 11,6 16 9 S 1020,7 10 0
02.12.2019 06:00:00 - - - - - - - -
02.12.2019 05:00:00 - - - - - - - -
02.12.2019 04:00:00 - - - - - - - -
02.12.2019 03:00:00 - - - - - - - -
02.12.2019 02:00:00 - - - - - - - -
02.12.2019 01:00:00 - - - - - - - -
02.12.2019 00:00:00 - - - - - - - -
01.12.2019 23:00:00 - - - - - - - -
01.12.2019 22:00:00 - - - - - - - -
01.12.2019 21:00:00 - - - - - - - -
01.12.2019 20:00:00 - - - - - - - -
01.12.2019 19:00:00 11,2 7,5 9 5 N 1022,2 12 -
01.12.2019 18:00:00 12,2 8,3 9 5 NNE 1021,9 15 -
01.12.2019 17:00:00 13,0 8,1 8 4 NNE 1021,9 20 0
01.12.2019 16:00:00 14,0 8,2 13 7 NE 1021,8 30 60
01.12.2019 15:00:00 14,8 7,6 15 8 NE 1021,8 30 60
01.12.2019 14:00:00 15,2 7,7 15 8 ENE 1021,8 30 60
01.12.2019 13:00:00 15,4 7,9 13 7 NE 1021,9 30 60
01.12.2019 12:00:00 15,4 7,9 9 5 NNE 1022,1 30 60
01.12.2019 11:00:00 15,0 7,1 13 7 NNE 1022,6 30 60
01.12.2019 10:00:00 14,0 7,8 11 6 NNE 1022,6 30 60

tt = Temperatura
td = dewpoint
ff = velocità del vento
dd = direzione del vento
ppp = reduced air pressure
vv = visibility
sd = ore di luce

Stazioni seguenti

WeatherPro
AMSI
MeteoEarth